Location: Asheville, NC
(35.6000°N, 82.5500°W)
Time: 09:17:39
(UTC-05:00)

RS-15 - Pass Details

Date: 05 January 2018
Orbit: 1886 x 2158 km, 64.8° (Epoch: 20 January)

Event Time Altitude Azimuth Distance (km) Brightness Sun altitude
Rises 19:46:34 0° 331° (NNW) 5,579 10.7 -26.8°
Reaches altitude 10° 19:50:11 10° 336° (NNW) 4,541 10.1 -27.5°
Maximum altitude 20:01:40 56° 53° (NE) 2,277 8.0 -29.8°
Enters shadow 20:03:33 52° 84° (E) 2,353 7.9 -30.2°
